Back to catalog

ONEWEB-0312

AliveCommunicationsPO
NORAD 49098·PAYLOAD·🇬🇧 United Kingdom

Launched Aug 21, 2021 from Baikonur Cosmodrome

Loading…

Next Passes (next 24 hours)

TLE

FreshSource: CelesTrak SupGP

Epoch: Sep 14, 2026, 14:06 UTC

1 49098C 21075Z   26257.58767778  .00003051  00000+0  78688-2 0  2576
2 49098  87.9201 348.1193 0001742 110.5951   2.8958 13.17642347    15

Track ONEWEB-0312 in real time with AllMySat

Download on the App Store